Year,Month,Day,Hour,Minute,Value (Times are PST for temperature in C)
2010,08,13,00,00,15.50
2010,08,13,00,01,15.50
2010,08,13,00,02,15.50
2010,08,13,00,03,15.50
2010,08,13,00,04,15.50
2010,08,13,00,05,15.50
2010,08,13,00,06,15.50
2010,08,13,00,07,15.60
2010,08,13,00,08,15.60
2010,08,13,00,09,15.60
2010,08,13,00,10,15.60
2010,08,13,00,11,15.60
2010,08,13,00,12,15.60
2010,08,13,00,13,15.60
2010,08,13,00,14,15.60
2010,08,13,00,15,15.60
2010,08,13,00,16,15.60
2010,08,13,00,17,15.60
2010,08,13,00,18,15.60
2010,08,13,00,19,15.50
2010,08,13,00,20,15.50
2010,08,13,00,21,15.50
2010,08,13,00,22,15.50
2010,08,13,00,23,15.50
2010,08,13,00,24,15.40
2010,08,13,00,25,15.40
2010,08,13,00,26,15.40
2010,08,13,00,27,15.30
2010,08,13,00,28,15.30
2010,08,13,00,29,15.30
2010,08,13,00,30,15.30
2010,08,13,00,31,15.30
2010,08,13,00,32,15.30
2010,08,13,00,33,15.30
2010,08,13,00,34,15.20
2010,08,13,00,35,15.20
2010,08,13,00,36,15.20
2010,08,13,00,37,15.20
2010,08,13,00,38,15.20
2010,08,13,00,39,15.10
2010,08,13,00,40,15.10
2010,08,13,00,41,15.10
2010,08,13,00,42,15.10
2010,08,13,00,43,15.00
2010,08,13,00,44,15.00
2010,08,13,00,45,15.00
2010,08,13,00,46,15.00
2010,08,13,00,47,15.00
2010,08,13,00,48,15.00
2010,08,13,00,49,15.00
2010,08,13,00,50,15.00
2010,08,13,00,51,15.00
2010,08,13,00,52,15.00
2010,08,13,00,53,15.00
2010,08,13,00,54,14.90
2010,08,13,00,55,14.90
2010,08,13,00,56,14.90
2010,08,13,00,57,14.90
2010,08,13,00,58,14.90
2010,08,13,00,59,14.80
2010,08,13,01,00,14.80
2010,08,13,01,01,14.80
2010,08,13,01,02,14.80
2010,08,13,01,03,14.80
2010,08,13,01,04,14.80
2010,08,13,01,05,14.80
2010,08,13,01,06,14.80
2010,08,13,01,07,14.70
2010,08,13,01,08,14.70
2010,08,13,01,09,14.70
2010,08,13,01,10,14.70
2010,08,13,01,11,14.70
2010,08,13,01,12,14.60
2010,08,13,01,13,14.60
2010,08,13,01,14,14.60
2010,08,13,01,15,14.60
2010,08,13,01,16,14.60
2010,08,13,01,17,14.60
2010,08,13,01,18,14.60
2010,08,13,01,19,14.50
2010,08,13,01,20,14.50
2010,08,13,01,21,14.50
2010,08,13,01,22,14.50
2010,08,13,01,23,14.50
2010,08,13,01,24,14.50
2010,08,13,01,25,14.50
2010,08,13,01,26,14.50
2010,08,13,01,27,14.50
2010,08,13,01,28,14.50
2010,08,13,01,29,14.50
2010,08,13,01,30,14.50
2010,08,13,01,31,14.50
2010,08,13,01,32,14.50
2010,08,13,01,33,14.40
2010,08,13,01,34,14.40
2010,08,13,01,35,14.40
2010,08,13,01,36,14.40
2010,08,13,01,37,14.40
2010,08,13,01,38,14.40
2010,08,13,01,39,14.30
2010,08,13,01,40,14.30
2010,08,13,01,41,14.30
2010,08,13,01,42,14.30
2010,08,13,01,43,14.30
2010,08,13,01,44,14.30
2010,08,13,01,45,14.30
2010,08,13,01,46,14.40
2010,08,13,01,47,14.40
2010,08,13,01,48,14.40
2010,08,13,01,49,14.40
2010,08,13,01,50,14.40
2010,08,13,01,51,14.40
2010,08,13,01,52,14.40
2010,08,13,01,53,14.40
2010,08,13,01,54,14.40
2010,08,13,01,55,14.40
2010,08,13,01,56,14.40
2010,08,13,01,57,14.40
2010,08,13,01,58,14.40
2010,08,13,01,59,14.30
2010,08,13,02,00,14.30
2010,08,13,02,01,14.30
2010,08,13,02,02,14.20
2010,08,13,02,03,14.20
2010,08,13,02,04,14.20
2010,08,13,02,05,14.20
2010,08,13,02,06,14.20
2010,08,13,02,07,14.20
2010,08,13,02,08,14.20
2010,08,13,02,09,14.20
2010,08,13,02,10,14.20
2010,08,13,02,11,14.20
2010,08,13,02,12,14.10
2010,08,13,02,13,14.10
2010,08,13,02,14,14.10
2010,08,13,02,15,14.10
2010,08,13,02,16,14.10
2010,08,13,02,17,14.10
2010,08,13,02,18,14.10
2010,08,13,02,19,14.10
2010,08,13,02,20,14.10
2010,08,13,02,21,14.10
2010,08,13,02,22,14.10
2010,08,13,02,23,14.20
2010,08,13,02,24,14.20
2010,08,13,02,25,14.20
2010,08,13,02,26,14.20
2010,08,13,02,27,14.20
2010,08,13,02,28,14.10
2010,08,13,02,29,14.10
2010,08,13,02,30,14.10
2010,08,13,02,31,14.10
2010,08,13,02,32,14.10
2010,08,13,02,33,14.10
2010,08,13,02,34,14.10
2010,08,13,02,35,14.00
2010,08,13,02,36,14.00
2010,08,13,02,37,14.00
2010,08,13,02,38,14.00
2010,08,13,02,39,14.00
2010,08,13,02,40,14.00
2010,08,13,02,41,14.00
2010,08,13,02,42,14.00
2010,08,13,02,43,14.00
2010,08,13,02,44,14.00
2010,08,13,02,45,14.00
2010,08,13,02,46,13.90
2010,08,13,02,47,13.90
2010,08,13,02,48,13.90
2010,08,13,02,49,13.90
2010,08,13,02,50,13.90
2010,08,13,02,51,14.00
2010,08,13,02,52,14.00
2010,08,13,02,53,14.00
2010,08,13,02,54,14.10
2010,08,13,02,55,14.10
2010,08,13,02,56,14.10
2010,08,13,02,57,14.20
2010,08,13,02,58,14.20
2010,08,13,02,59,14.20
2010,08,13,03,00,14.20
2010,08,13,03,01,14.20
2010,08,13,03,02,14.20
2010,08,13,03,03,14.20
2010,08,13,03,04,14.20
2010,08,13,03,05,14.20
2010,08,13,03,06,14.30
2010,08,13,03,07,14.30
2010,08,13,03,08,14.30
2010,08,13,03,09,14.30
2010,08,13,03,10,14.30
2010,08,13,03,11,14.30
2010,08,13,03,12,14.40
2010,08,13,03,13,14.40
2010,08,13,03,14,14.40
2010,08,13,03,15,14.40
2010,08,13,03,16,14.40
2010,08,13,03,17,14.40
2010,08,13,03,18,14.40
2010,08,13,03,19,14.40
2010,08,13,03,20,14.40
2010,08,13,03,21,14.40
2010,08,13,03,22,14.40
2010,08,13,03,23,14.50
2010,08,13,03,24,14.50
2010,08,13,03,25,14.50
2010,08,13,03,26,14.50
2010,08,13,03,27,14.50
2010,08,13,03,28,14.40
2010,08,13,03,29,14.50
2010,08,13,03,30,14.50
2010,08,13,03,31,14.50
2010,08,13,03,32,14.50
2010,08,13,03,33,14.50
2010,08,13,03,34,14.50
2010,08,13,03,35,14.60
2010,08,13,03,36,14.60
2010,08,13,03,37,14.60
2010,08,13,03,38,14.60
2010,08,13,03,39,14.60
2010,08,13,03,40,14.60
2010,08,13,03,41,14.50
2010,08,13,03,42,14.50
2010,08,13,03,43,14.50
2010,08,13,03,44,14.50
2010,08,13,03,45,14.50
2010,08,13,03,46,14.50
2010,08,13,03,47,14.50
2010,08,13,03,48,14.50
2010,08,13,03,49,14.50
2010,08,13,03,50,14.60
2010,08,13,03,51,14.60
2010,08,13,03,52,14.60
2010,08,13,03,53,14.60
2010,08,13,03,54,14.60
2010,08,13,03,55,14.70
2010,08,13,03,56,14.70
2010,08,13,03,57,14.60
2010,08,13,03,58,14.60
2010,08,13,03,59,14.60
2010,08,13,04,00,14.60
2010,08,13,04,01,14.60
2010,08,13,04,02,14.60
2010,08,13,04,03,14.50
2010,08,13,04,04,14.50
2010,08,13,04,05,14.50
2010,08,13,04,06,14.40
2010,08,13,04,07,14.30
2010,08,13,04,08,14.20
2010,08,13,04,09,14.20
2010,08,13,04,10,14.10
2010,08,13,04,11,14.00
2010,08,13,04,12,14.00
2010,08,13,04,13,13.90
2010,08,13,04,14,13.90
2010,08,13,04,15,13.80
2010,08,13,04,16,13.80
2010,08,13,04,17,13.80
2010,08,13,04,18,13.70
2010,08,13,04,19,13.70
2010,08,13,04,20,13.70
2010,08,13,04,21,13.70
2010,08,13,04,22,13.70
2010,08,13,04,23,13.70
2010,08,13,04,24,13.70
2010,08,13,04,25,13.70
2010,08,13,04,26,13.70
2010,08,13,04,27,13.80
2010,08,13,04,28,13.80
2010,08,13,04,29,13.90
2010,08,13,04,30,13.90
2010,08,13,04,31,13.90
2010,08,13,04,32,13.90
2010,08,13,04,33,13.90
2010,08,13,04,34,13.90
2010,08,13,04,35,13.90
2010,08,13,04,36,13.90
2010,08,13,04,37,13.90
2010,08,13,04,38,14.00
2010,08,13,04,39,14.00
2010,08,13,04,40,14.00
2010,08,13,04,41,14.00
2010,08,13,04,42,14.00
2010,08,13,04,43,14.00
2010,08,13,04,44,14.00
2010,08,13,04,45,14.00
2010,08,13,04,46,14.00
2010,08,13,04,47,14.00
2010,08,13,04,48,14.10
2010,08,13,04,49,14.10
2010,08,13,04,50,14.10
2010,08,13,04,51,14.10
2010,08,13,04,52,14.10
2010,08,13,04,53,14.10
2010,08,13,04,54,14.10
2010,08,13,04,55,14.20
2010,08,13,04,56,14.20
2010,08,13,04,57,14.20
2010,08,13,04,58,14.20
2010,08,13,04,59,14.30
2010,08,13,05,00,14.30
2010,08,13,05,01,14.30
2010,08,13,05,02,14.30
2010,08,13,05,03,14.30
2010,08,13,05,04,14.30
2010,08,13,05,05,14.30
2010,08,13,05,06,14.20
2010,08,13,05,07,14.30
2010,08,13,05,08,14.30
2010,08,13,05,09,14.40
2010,08,13,05,10,14.40
2010,08,13,05,11,14.50
2010,08,13,05,12,14.50
2010,08,13,05,13,14.50
2010,08,13,05,14,14.60
2010,08,13,05,15,14.60
2010,08,13,05,16,14.60
2010,08,13,05,17,14.60
2010,08,13,05,18,14.60
2010,08,13,05,19,14.50
2010,08,13,05,20,14.50
2010,08,13,05,21,14.50
2010,08,13,05,22,14.50
2010,08,13,05,23,14.60
2010,08,13,05,24,14.60
2010,08,13,05,25,14.70
2010,08,13,05,26,14.70
2010,08,13,05,27,14.70
2010,08,13,05,28,14.70
2010,08,13,05,29,14.80
2010,08,13,05,30,14.80
2010,08,13,05,31,14.80
2010,08,13,05,32,14.80
2010,08,13,05,33,14.70
2010,08,13,05,34,14.70
2010,08,13,05,35,14.60
2010,08,13,05,36,14.60
2010,08,13,05,37,14.60
2010,08,13,05,38,14.60
2010,08,13,05,39,14.50
2010,08,13,05,40,14.50
2010,08,13,05,41,14.50
2010,08,13,05,42,14.50
2010,08,13,05,43,14.40
2010,08,13,05,44,14.40
2010,08,13,05,45,14.40
2010,08,13,05,46,14.40
2010,08,13,05,47,14.50
2010,08,13,05,48,14.50
2010,08,13,05,49,14.60
2010,08,13,05,50,14.60
2010,08,13,05,51,14.60
2010,08,13,05,52,14.60
2010,08,13,05,53,14.70
2010,08,13,05,54,14.70
2010,08,13,05,55,14.70
2010,08,13,05,56,14.80
2010,08,13,05,57,14.80
2010,08,13,05,58,14.90
2010,08,13,05,59,14.90
2010,08,13,06,00,14.90
2010,08,13,06,01,14.90
2010,08,13,06,02,14.90
2010,08,13,06,03,14.90
2010,08,13,06,04,14.90
2010,08,13,06,05,15.00
2010,08,13,06,06,15.10
2010,08,13,06,07,15.20
2010,08,13,06,08,15.30
2010,08,13,06,09,15.50
2010,08,13,06,10,15.50
2010,08,13,06,11,15.60
2010,08,13,06,12,15.70
2010,08,13,06,13,15.80
2010,08,13,06,14,15.90
2010,08,13,06,15,15.90
2010,08,13,06,16,16.10
2010,08,13,06,17,16.10
2010,08,13,06,18,16.10
2010,08,13,06,19,16.10
2010,08,13,06,20,16.10
2010,08,13,06,21,16.10
2010,08,13,06,22,16.10
2010,08,13,06,23,16.10
2010,08,13,06,24,16.10
2010,08,13,06,25,16.10
2010,08,13,06,26,16.10
2010,08,13,06,27,16.20
2010,08,13,06,28,16.20
2010,08,13,06,29,16.20
2010,08,13,06,30,16.30
2010,08,13,06,31,16.30
2010,08,13,06,32,16.30
2010,08,13,06,33,16.40
2010,08,13,06,34,16.40
2010,08,13,06,35,16.40
2010,08,13,06,36,16.40
2010,08,13,06,37,16.40
2010,08,13,06,38,16.40
2010,08,13,06,39,16.40
2010,08,13,06,40,16.40
2010,08,13,06,41,16.40
2010,08,13,06,42,16.30
2010,08,13,06,43,16.30
2010,08,13,06,44,16.20
2010,08,13,06,45,16.20
2010,08,13,06,46,16.10
2010,08,13,06,47,16.10
2010,08,13,06,48,16.10
2010,08,13,06,49,15.90
2010,08,13,06,50,15.90
2010,08,13,06,51,15.80
2010,08,13,06,52,15.80
2010,08,13,06,53,15.80
2010,08,13,06,54,15.70
2010,08,13,06,55,15.60
2010,08,13,06,56,15.60
2010,08,13,06,57,15.60
2010,08,13,06,58,15.70
2010,08,13,06,59,15.70
2010,08,13,07,00,15.80
2010,08,13,07,01,15.80
2010,08,13,07,02,15.80
2010,08,13,07,03,15.80
2010,08,13,07,04,15.90
2010,08,13,07,05,15.90
2010,08,13,07,06,16.00
2010,08,13,07,07,16.10
2010,08,13,07,08,16.10
2010,08,13,07,09,16.20
2010,08,13,07,10,16.20
2010,08,13,07,11,16.20
2010,08,13,07,12,16.30
2010,08,13,07,13,16.30
2010,08,13,07,14,16.40
2010,08,13,07,15,16.40
2010,08,13,07,16,16.40
2010,08,13,07,17,16.50
2010,08,13,07,18,16.60
2010,08,13,07,19,16.60
2010,08,13,07,20,16.70
2010,08,13,07,21,16.70
2010,08,13,07,22,16.70
2010,08,13,07,23,16.70
2010,08,13,07,24,16.70
2010,08,13,07,25,16.70
2010,08,13,07,26,16.80
2010,08,13,07,27,16.80
2010,08,13,07,28,16.90
2010,08,13,07,29,16.90
2010,08,13,07,30,16.90
2010,08,13,07,31,17.00
2010,08,13,07,32,17.00
2010,08,13,07,33,17.10
2010,08,13,07,34,17.10
2010,08,13,07,35,17.10
2010,08,13,07,36,17.20
2010,08,13,07,37,17.20
2010,08,13,07,38,17.30
2010,08,13,07,39,17.30
2010,08,13,07,40,17.30
2010,08,13,07,41,17.30
2010,08,13,07,42,17.40
2010,08,13,07,43,17.40
2010,08,13,07,44,17.50
2010,08,13,07,45,17.50
2010,08,13,07,46,17.50
2010,08,13,07,47,17.50
2010,08,13,07,48,17.50
2010,08,13,07,49,17.60
2010,08,13,07,50,17.60
2010,08,13,07,51,17.70
2010,08,13,07,52,17.70
2010,08,13,07,53,17.80
2010,08,13,07,54,17.80
2010,08,13,07,55,17.90
2010,08,13,07,56,17.90
2010,08,13,07,57,17.90
2010,08,13,07,58,18.00
2010,08,13,07,59,18.20
2010,08,13,08,00,18.20
2010,08,13,08,01,18.30
2010,08,13,08,02,18.30
2010,08,13,08,03,18.30
2010,08,13,08,04,18.40
2010,08,13,08,05,18.40
2010,08,13,08,06,18.40
2010,08,13,08,07,18.50
2010,08,13,08,08,18.50
2010,08,13,08,09,18.50
2010,08,13,08,10,18.60
2010,08,13,08,11,18.60
2010,08,13,08,12,18.70
2010,08,13,08,13,18.70
2010,08,13,08,14,18.70
2010,08,13,08,15,18.80
2010,08,13,08,16,18.80
2010,08,13,08,17,18.80
2010,08,13,08,18,18.80
2010,08,13,08,19,18.80
2010,08,13,08,20,18.80
2010,08,13,08,21,18.80
2010,08,13,08,22,18.80
2010,08,13,08,23,18.90
2010,08,13,08,24,18.90
2010,08,13,08,25,18.90
2010,08,13,08,26,18.90
2010,08,13,08,27,18.90
2010,08,13,08,28,19.00
2010,08,13,08,29,19.10
2010,08,13,08,30,19.10
2010,08,13,08,31,19.10
2010,08,13,08,32,19.00
2010,08,13,08,33,18.90
2010,08,13,08,34,19.00
2010,08,13,08,35,19.10
2010,08,13,08,36,19.10
2010,08,13,08,37,19.10
2010,08,13,08,38,19.10
2010,08,13,08,39,19.10
2010,08,13,08,40,19.10
2010,08,13,08,41,19.20
2010,08,13,08,42,19.20
2010,08,13,08,43,19.30
2010,08,13,08,44,19.30
2010,08,13,08,45,19.30
2010,08,13,08,46,19.30
2010,08,13,08,47,19.30
2010,08,13,08,48,19.40
2010,08,13,08,49,19.30
2010,08,13,08,50,19.30
2010,08,13,08,51,19.30
2010,08,13,08,52,19.40
2010,08,13,08,53,19.40
2010,08,13,08,54,19.40
2010,08,13,08,55,19.40
2010,08,13,08,56,19.40
2010,08,13,08,57,19.40
2010,08,13,08,58,19.40
2010,08,13,08,59,19.40
2010,08,13,09,00,19.40
2010,08,13,09,01,19.40
2010,08,13,09,02,19.40
2010,08,13,09,03,19.40
2010,08,13,09,04,19.50
2010,08,13,09,05,19.50
2010,08,13,09,06,19.50
2010,08,13,09,07,19.50
2010,08,13,09,08,19.50
2010,08,13,09,09,19.60
2010,08,13,09,10,19.60
2010,08,13,09,11,19.60
2010,08,13,09,12,19.60
2010,08,13,09,13,19.60
2010,08,13,09,14,19.60
2010,08,13,09,15,19.60
2010,08,13,09,16,19.60
2010,08,13,09,17,19.60
2010,08,13,09,18,19.60
2010,08,13,09,19,19.60
2010,08,13,09,20,19.70
2010,08,13,09,21,19.70
2010,08,13,09,22,19.80
2010,08,13,09,23,19.80
2010,08,13,09,24,19.90
2010,08,13,09,25,19.90
2010,08,13,09,26,19.90
2010,08,13,09,27,19.90
2010,08,13,09,28,19.90
2010,08,13,09,29,20.00
2010,08,13,09,30,20.10
2010,08,13,09,31,20.20
2010,08,13,09,32,20.20
2010,08,13,09,33,20.30
2010,08,13,09,34,20.40
2010,08,13,09,35,20.40
2010,08,13,09,36,20.40
2010,08,13,09,37,20.40
2010,08,13,09,38,20.50
2010,08,13,09,39,20.50
2010,08,13,09,40,20.60
2010,08,13,09,41,20.70
2010,08,13,09,42,20.70
2010,08,13,09,43,20.80
2010,08,13,09,44,20.80
2010,08,13,09,45,20.70
2010,08,13,09,46,20.70
2010,08,13,09,47,20.80
2010,08,13,09,48,20.80
2010,08,13,09,49,20.80
2010,08,13,09,50,20.70
2010,08,13,09,51,20.70
2010,08,13,09,52,20.80
2010,08,13,09,53,20.70
2010,08,13,09,54,20.80
2010,08,13,09,55,20.80
2010,08,13,09,56,20.80
2010,08,13,09,57,20.80
2010,08,13,09,58,20.90
2010,08,13,09,59,20.80
2010,08,13,10,00,20.80
2010,08,13,10,01,20.80
2010,08,13,10,02,20.80
2010,08,13,10,03,20.80
2010,08,13,10,04,20.80
2010,08,13,10,05,20.90
2010,08,13,10,06,20.90
2010,08,13,10,07,20.80
2010,08,13,10,08,20.80
2010,08,13,10,09,20.90
2010,08,13,10,10,20.90
2010,08,13,10,11,20.90
2010,08,13,10,12,20.90
2010,08,13,10,13,20.90
2010,08,13,10,14,20.90
2010,08,13,10,15,20.90
2010,08,13,10,16,20.90
2010,08,13,10,17,21.00
2010,08,13,10,18,21.00
2010,08,13,10,19,21.00
2010,08,13,10,20,21.00
2010,08,13,10,21,21.00
2010,08,13,10,22,21.00
2010,08,13,10,23,21.00
2010,08,13,10,24,21.10
2010,08,13,10,25,21.10
2010,08,13,10,26,21.20
2010,08,13,10,27,21.20
2010,08,13,10,28,21.20
2010,08,13,10,29,21.20
2010,08,13,10,30,21.20
2010,08,13,10,31,21.20
2010,08,13,10,32,21.30
2010,08,13,10,33,21.30
2010,08,13,10,34,21.30
2010,08,13,10,35,21.30
2010,08,13,10,36,21.40
2010,08,13,10,37,21.50
2010,08,13,10,38,21.60
2010,08,13,10,39,21.60
2010,08,13,10,40,21.60
2010,08,13,10,41,21.70
2010,08,13,10,42,21.70
2010,08,13,10,43,21.80
2010,08,13,10,44,21.80
2010,08,13,10,45,21.90
2010,08,13,10,46,22.00
2010,08,13,10,47,22.00
2010,08,13,10,48,22.00
2010,08,13,10,49,22.00
2010,08,13,10,50,21.90
2010,08,13,10,51,21.90
2010,08,13,10,52,21.80
2010,08,13,10,53,21.80
2010,08,13,10,54,21.80
2010,08,13,10,55,21.80
2010,08,13,10,56,21.80
2010,08,13,10,57,21.70
2010,08,13,10,58,21.70
2010,08,13,10,59,21.70
2010,08,13,11,00,21.80
2010,08,13,11,01,21.90
2010,08,13,11,02,22.00
2010,08,13,11,03,22.00
2010,08,13,11,04,22.00
2010,08,13,11,05,22.00
2010,08,13,11,06,22.10
2010,08,13,11,07,22.10
2010,08,13,11,08,22.10
2010,08,13,11,09,22.10
2010,08,13,11,10,22.20
2010,08,13,11,11,22.10
2010,08,13,11,12,22.10
2010,08,13,11,13,22.20
2010,08,13,11,14,22.20
2010,08,13,11,15,22.20
2010,08,13,11,16,22.30
2010,08,13,11,17,22.30
2010,08,13,11,18,22.30
2010,08,13,11,19,22.40
2010,08,13,11,20,22.40
2010,08,13,11,21,22.50
2010,08,13,11,22,22.60
2010,08,13,11,23,22.60
2010,08,13,11,24,22.70
2010,08,13,11,25,22.90
2010,08,13,11,26,23.00
2010,08,13,11,27,23.10
2010,08,13,11,28,23.20
2010,08,13,11,29,23.20
2010,08,13,11,30,23.30
2010,08,13,11,31,23.30
2010,08,13,11,32,23.30
2010,08,13,11,33,23.30
2010,08,13,11,34,23.30
2010,08,13,11,35,23.40
2010,08,13,11,36,23.40
2010,08,13,11,37,23.50
2010,08,13,11,38,23.50
2010,08,13,11,39,23.40
2010,08,13,11,40,23.30
2010,08,13,11,41,23.30
2010,08,13,11,42,23.20
2010,08,13,11,43,23.20
2010,08,13,11,44,23.10
2010,08,13,11,45,23.10
2010,08,13,11,46,23.10
2010,08,13,11,47,23.10
2010,08,13,11,48,23.10
2010,08,13,11,49,23.10
2010,08,13,11,50,23.10
2010,08,13,11,51,23.10
2010,08,13,11,52,23.10
2010,08,13,11,53,23.10
2010,08,13,11,54,23.10
2010,08,13,11,55,23.10
2010,08,13,11,56,23.30
2010,08,13,11,57,23.30
2010,08,13,11,58,23.40
2010,08,13,11,59,23.40
2010,08,13,12,00,23.50
2010,08,13,12,01,23.50
2010,08,13,12,02,23.40
2010,08,13,12,03,23.40
2010,08,13,12,04,23.30
2010,08,13,12,05,23.30
2010,08,13,12,06,23.30
2010,08,13,12,07,23.30
2010,08,13,12,08,23.30
2010,08,13,12,09,23.40
2010,08,13,12,10,23.50
2010,08,13,12,11,23.70
2010,08,13,12,12,23.70
2010,08,13,12,13,23.80
2010,08,13,12,14,23.80
2010,08,13,12,15,23.80
2010,08,13,12,16,23.70
2010,08,13,12,17,23.80
2010,08,13,12,18,23.80
2010,08,13,12,19,23.80
2010,08,13,12,20,23.90
2010,08,13,12,21,24.00
2010,08,13,12,22,24.10
2010,08,13,12,23,24.10
2010,08,13,12,24,24.10
2010,08,13,12,25,24.10
2010,08,13,12,26,24.10
2010,08,13,12,27,24.10
2010,08,13,12,28,24.10
2010,08,13,12,29,24.20
2010,08,13,12,30,24.30
2010,08,13,12,31,24.40
2010,08,13,12,32,24.50
2010,08,13,12,33,24.60
2010,08,13,12,34,24.70
2010,08,13,12,35,24.80
2010,08,13,12,36,24.80
2010,08,13,12,37,24.80
2010,08,13,12,38,24.80
2010,08,13,12,39,24.80
2010,08,13,12,40,24.70
2010,08,13,12,41,24.70
2010,08,13,12,42,24.60
2010,08,13,12,43,24.70
2010,08,13,12,44,24.70
2010,08,13,12,45,24.80
2010,08,13,12,46,24.90
2010,08,13,12,47,24.90
2010,08,13,12,48,25.00
2010,08,13,12,49,25.10
2010,08,13,12,50,25.20
2010,08,13,12,51,25.30
2010,08,13,12,52,25.30
2010,08,13,12,53,25.30
2010,08,13,12,54,25.40
2010,08,13,12,55,25.40
2010,08,13,12,56,25.40
2010,08,13,12,57,25.50
2010,08,13,12,58,25.60
2010,08,13,12,59,25.60
2010,08,13,13,00,25.70
2010,08,13,13,01,25.70
2010,08,13,13,02,25.80
2010,08,13,13,03,25.80
2010,08,13,13,04,25.90
2010,08,13,13,05,26.00
2010,08,13,13,06,26.00
2010,08,13,13,07,26.00
2010,08,13,13,08,26.10
2010,08,13,13,09,26.10
2010,08,13,13,10,26.00
2010,08,13,13,11,25.90
2010,08,13,13,12,25.80
2010,08,13,13,13,25.80
2010,08,13,13,14,25.70
2010,08,13,13,15,25.70
2010,08,13,13,16,25.80
2010,08,13,13,17,25.80
2010,08,13,13,18,25.90
2010,08,13,13,19,25.90
2010,08,13,13,20,25.90
2010,08,13,13,21,25.80
2010,08,13,13,22,25.80
2010,08,13,13,23,25.90
2010,08,13,13,24,25.80
2010,08,13,13,25,25.80
2010,08,13,13,26,25.70
2010,08,13,13,27,25.70
2010,08,13,13,28,25.70
2010,08,13,13,29,25.80
2010,08,13,13,30,25.90
2010,08,13,13,31,26.00
2010,08,13,13,32,26.10
2010,08,13,13,33,26.10
2010,08,13,13,34,26.00
2010,08,13,13,35,26.00
2010,08,13,13,36,26.00
2010,08,13,13,37,26.10
2010,08,13,13,38,26.10
2010,08,13,13,39,26.10
2010,08,13,13,40,26.00
2010,08,13,13,41,26.00
2010,08,13,13,42,25.90
2010,08,13,13,43,25.90
2010,08,13,13,44,25.80
2010,08,13,13,45,25.80
2010,08,13,13,46,25.90
2010,08,13,13,47,26.00
2010,08,13,13,48,26.10
2010,08,13,13,49,26.10
2010,08,13,13,50,26.10
2010,08,13,13,51,26.10
2010,08,13,13,52,26.10
2010,08,13,13,53,26.20
2010,08,13,13,54,26.20
2010,08,13,13,55,26.10
2010,08,13,13,56,26.10
2010,08,13,13,57,26.00
2010,08,13,13,58,25.90
2010,08,13,13,59,25.90
2010,08,13,14,00,25.90
2010,08,13,14,01,25.90
2010,08,13,14,02,26.00
2010,08,13,14,03,26.10
2010,08,13,14,04,26.20
2010,08,13,14,05,26.30
2010,08,13,14,06,26.30
2010,08,13,14,07,26.30
2010,08,13,14,08,26.40
2010,08,13,14,09,26.40
2010,08,13,14,10,26.40
2010,08,13,14,11,26.40
2010,08,13,14,12,26.40
2010,08,13,14,13,26.40
2010,08,13,14,14,26.40
2010,08,13,14,15,26.50
2010,08,13,14,16,26.60
2010,08,13,14,17,26.60
2010,08,13,14,18,26.60
2010,08,13,14,19,26.60
2010,08,13,14,20,26.60
2010,08,13,14,21,26.60
2010,08,13,14,22,26.60
2010,08,13,14,23,26.60
2010,08,13,14,24,26.60
2010,08,13,14,25,26.70
2010,08,13,14,26,26.80
2010,08,13,14,27,26.90
2010,08,13,14,28,26.90
2010,08,13,14,29,26.90
2010,08,13,14,30,26.80
2010,08,13,14,31,26.70
2010,08,13,14,32,26.70
2010,08,13,14,33,26.70
2010,08,13,14,34,26.70
2010,08,13,14,35,26.70
2010,08,13,14,36,26.70
2010,08,13,14,37,26.70
2010,08,13,14,38,26.70
2010,08,13,14,39,26.70
2010,08,13,14,40,26.70
2010,08,13,14,41,26.70
2010,08,13,14,42,26.70
2010,08,13,14,43,26.70
2010,08,13,14,44,26.80
2010,08,13,14,45,26.90
2010,08,13,14,46,26.90
2010,08,13,14,47,26.90
2010,08,13,14,48,27.10
2010,08,13,14,49,27.10
2010,08,13,14,50,27.10
2010,08,13,14,51,27.20
2010,08,13,14,52,27.20
2010,08,13,14,53,27.20
2010,08,13,14,54,27.20
2010,08,13,14,55,27.10
2010,08,13,14,56,27.10
2010,08,13,14,57,27.10
2010,08,13,14,58,27.10
2010,08,13,14,59,27.10
2010,08,13,15,00,27.10
2010,08,13,15,01,27.20
2010,08,13,15,02,27.20
2010,08,13,15,03,27.30
2010,08,13,15,04,27.30
2010,08,13,15,05,27.30
2010,08,13,15,06,27.30
2010,08,13,15,07,27.30
2010,08,13,15,08,27.20
2010,08,13,15,09,27.20
2010,08,13,15,10,27.20
2010,08,13,15,11,27.30
2010,08,13,15,12,27.30
2010,08,13,15,13,27.30
2010,08,13,15,14,27.30
2010,08,13,15,15,27.30
2010,08,13,15,16,27.30
2010,08,13,15,17,27.30
2010,08,13,15,18,27.40
2010,08,13,15,19,27.60
2010,08,13,15,20,27.70
2010,08,13,15,21,27.80
2010,08,13,15,22,27.70
2010,08,13,15,23,27.70
2010,08,13,15,24,27.80
2010,08,13,15,25,27.80
2010,08,13,15,26,27.90
2010,08,13,15,27,27.90
2010,08,13,15,28,27.90
2010,08,13,15,29,27.90
2010,08,13,15,30,27.80
2010,08,13,15,31,27.80
2010,08,13,15,32,27.70
2010,08,13,15,33,27.60
2010,08,13,15,34,27.60
2010,08,13,15,35,27.70
2010,08,13,15,36,27.80
2010,08,13,15,37,27.90
2010,08,13,15,38,27.90
2010,08,13,15,39,27.90
2010,08,13,15,40,27.70
2010,08,13,15,41,27.60
2010,08,13,15,42,27.50
2010,08,13,15,43,27.30
2010,08,13,15,44,27.30
2010,08,13,15,45,27.30
2010,08,13,15,46,27.30
2010,08,13,15,47,27.30
2010,08,13,15,48,27.30
2010,08,13,15,49,27.40
2010,08,13,15,50,27.40
2010,08,13,15,51,27.50
2010,08,13,15,52,27.60
2010,08,13,15,53,27.60
2010,08,13,15,54,27.70
2010,08,13,15,55,27.80
2010,08,13,15,56,27.90
2010,08,13,15,57,27.90
2010,08,13,15,58,28.00
2010,08,13,15,59,27.90
2010,08,13,16,00,27.80
2010,08,13,16,01,27.70
2010,08,13,16,02,27.60
2010,08,13,16,03,27.60
2010,08,13,16,04,27.60
2010,08,13,16,05,27.60
2010,08,13,16,06,27.60
2010,08,13,16,07,27.60
2010,08,13,16,08,27.60
2010,08,13,16,09,27.50
2010,08,13,16,10,27.60
2010,08,13,16,11,27.60
2010,08,13,16,12,27.70
2010,08,13,16,13,27.70
2010,08,13,16,14,27.70
2010,08,13,16,15,27.80
2010,08,13,16,16,27.90
2010,08,13,16,17,27.90
2010,08,13,16,18,28.00
2010,08,13,16,19,28.00
2010,08,13,16,20,27.90
2010,08,13,16,21,27.80
2010,08,13,16,22,27.80
2010,08,13,16,23,27.70
2010,08,13,16,24,27.60
2010,08,13,16,25,27.60
2010,08,13,16,26,27.60
2010,08,13,16,27,27.70
2010,08,13,16,28,27.80
2010,08,13,16,29,27.90
2010,08,13,16,30,28.00
2010,08,13,16,31,28.00
2010,08,13,16,32,28.10
2010,08,13,16,33,28.20
2010,08,13,16,34,28.20
2010,08,13,16,35,28.30
2010,08,13,16,36,28.40
2010,08,13,16,37,28.50
2010,08,13,16,38,28.60
2010,08,13,16,39,28.70
2010,08,13,16,40,28.80
2010,08,13,16,41,28.80
2010,08,13,16,42,28.70
2010,08,13,16,43,28.70
2010,08,13,16,44,28.70
2010,08,13,16,45,28.70
2010,08,13,16,46,28.70
2010,08,13,16,47,28.70
2010,08,13,16,48,28.70
2010,08,13,16,49,28.70
2010,08,13,16,50,28.60
2010,08,13,16,51,28.60
2010,08,13,16,52,28.60
2010,08,13,16,53,28.60
2010,08,13,16,54,28.60
2010,08,13,16,55,28.60
2010,08,13,16,56,28.70
2010,08,13,16,57,28.70
2010,08,13,16,58,28.80
2010,08,13,16,59,28.90
2010,08,13,17,00,28.90
2010,08,13,17,01,28.90
2010,08,13,17,02,28.90
2010,08,13,17,03,29.00
2010,08,13,17,04,29.10
2010,08,13,17,05,29.10
2010,08,13,17,06,29.10
2010,08,13,17,07,29.10
2010,08,13,17,08,29.00
2010,08,13,17,09,28.90
2010,08,13,17,10,28.90
2010,08,13,17,11,28.90
2010,08,13,17,12,28.80
2010,08,13,17,13,28.80
2010,08,13,17,14,28.80
2010,08,13,17,15,28.70
2010,08,13,17,16,28.60
2010,08,13,17,17,28.50
2010,08,13,17,18,28.40
2010,08,13,17,19,28.30